Weather History for KPAH - October, 2012

Change the Weather History Date:

Sunday, October 14, 2012

  Actual Average Record
Temperature  
Mean Temperature 65 °F 59 °F  
Max Temperature 73 °F 72 °F 88 °F (1940)
Min Temperature 56 °F 47 °F 30 °F (1979)
Degree Days  
Heating Degree Days 0 7  
Month to date heating degree days 124 76  
Since 1 July heating degree days 164 115  
Cooling Degree Days 0 1  
Month to date cooling degree days 6 25  
Year to date cooling degree days 1958 1525  
Growing Degree Days 15 (Base 50)    
Moisture  
Dew Point 60 °F    
Average Humidity 74    
Maximum Humidity 87    
Minimum Humidity 61    
Precipitation  
Precipitation 0.17 in 0.12 in 1.97 in (1974)
Month to date precipitation 1.05 1.82  
Year to date precipitation 22.23 38.05  
Snow  
Snow 0.00 in 0.00 in 0.00 in (2002)
Month to date snowfall 0.0 0.0  
Since 1 July snowfall 0.0 0.0  
Since 1 September snowfall 0.0 0.0  
Snow Depth 0.00 in    
Sea Level Pressure  
Sea Level Pressure 29.86 in    
Wind  
Wind Speed 12 mph (SW)    
Max Wind Speed 31 mph    
Max Gust Speed 41 mph    
Visibility 9 miles    
Events Rain    
T = Trace of Precipitation, MM = Missing Value Source: NWS Daily Summary

Daily Weather History Graph

Daily Weather History Graph

Search for Another Location

Airport or City:

Trip Planner

Search our weather history database for the weather conditions in past years. The results will help you decide how hot, cold, wet, or windy it might be!

Date:

Astronomy

Oct. 14, 2012 Rise Set
Actual Time 7:02 AM CDT 6:18 PM CDT
Civil Twilight 6:36 AM CDT 6:45 PM CDT
Nautical Twilight 6:06 AM CDT 7:15 PM CDT
Astronomical Twilight 5:35 AM CDT 7:45 PM CDT
Moon 6:01 AM CDT (10/14) 5:39 PM CDT (10/14)
Length of Visible Light 12h 08m
Length of Day
11h 16m
Waning Crescent, 1% of the Moon is Illuminated
Oct 14
Waning Crescent
Oct 15
New
Oct 21
First Quarter
Oct 29
Full
Nov 6
Last Quarter

Hourly Weather History & Observations

Time (CDT) Temp. Dew Point Humidity Pressure Visibility Wind Dir Wind Speed Gust Speed Precip Events Conditions
12:53 AM 71.1 °F 63.0 °F 75% 29.91 in 10.0 mi South 11.5 mph 18.4 mph N/A   Clear
1:53 AM 72.0 °F 63.0 °F 73% 29.89 in 10.0 mi South 10.4 mph 20.7 mph N/A   Clear
2:53 AM 72.0 °F 63.0 °F 73% 29.88 in 10.0 mi South 9.2 mph 20.7 mph N/A   Clear
3:53 AM 72.0 °F 63.0 °F 73% 29.88 in 10.0 mi SSW 12.7 mph 17.3 mph N/A   Mostly Cloudy
4:53 AM 69.1 °F 64.9 °F 87% 29.90 in 5.0 mi SSW 9.2 mph 19.6 mph 0.07 in Rain Rain
5:53 AM 68.0 °F 64.9 °F 90% 29.89 in 4.0 mi South 8.1 mph 19.6 mph 0.09 in Rain Rain
6:02 AM 68.0 °F 64.4 °F 88% 29.90 in 6.0 mi South 10.4 mph 20.7 mph 0.00 in Rain Light Rain
6:53 AM 68.0 °F 64.9 °F 90% 29.85 in 8.0 mi South 11.5 mph - 0.01 in Rain Light Rain
7:53 AM 66.9 °F 63.0 °F 87% 29.82 in 10.0 mi South 15.0 mph 27.6 mph 0.00 in Rain Light Rain
8:53 AM 66.9 °F 62.1 °F 84% 29.83 in 10.0 mi South 12.7 mph 21.9 mph 0.00 in   Scattered Clouds
9:53 AM 66.9 °F 61.0 °F 81% 29.84 in 10.0 mi SSW 16.1 mph 28.8 mph N/A   Partly Cloudy
10:44 AM 69.8 °F 60.8 °F 73% 29.86 in 10.0 mi SSW 16.1 mph 32.2 mph N/A   Mostly Cloudy
10:53 AM 69.1 °F 61.0 °F 75% 29.85 in 10.0 mi SW 17.3 mph 27.6 mph N/A   Mostly Cloudy
11:48 AM 69.8 °F 59.0 °F 68% 29.86 in 10.0 mi SW 19.6 mph 34.5 mph N/A   Overcast
11:53 AM 68.0 °F 59.0 °F 73% 29.85 in 10.0 mi SW 16.1 mph 34.5 mph N/A   Overcast
12:11 PM 69.8 °F 59.0 °F 68% 29.85 in 10.0 mi SW 18.4 mph 32.2 mph N/A   Overcast
12:53 PM 70.0 °F 59.0 °F 68% 29.83 in 10.0 mi SW 23.0 mph 36.8 mph N/A   Overcast
1:02 PM 69.8 °F 59.0 °F 68% 29.83 in 10.0 mi SW 26.5 mph 41.4 mph N/A   Overcast
1:13 PM 71.6 °F 59.0 °F 64% 29.82 in 10.0 mi SW 20.7 mph 41.4 mph N/A   Overcast
1:53 PM 72.0 °F 60.1 °F 66% 29.80 in 10.0 mi SW 23.0 mph 32.2 mph N/A   Mostly Cloudy
2:53 PM 72.0 °F 59.0 °F 64% 29.78 in 10.0 mi WSW 24.2 mph 29.9 mph N/A   Mostly Cloudy
3:53 PM 72.0 °F 59.0 °F 64% 29.78 in 10.0 mi WSW 16.1 mph 27.6 mph N/A   Overcast
4:53 PM 72.0 °F 57.9 °F 61% 29.78 in 10.0 mi SW 12.7 mph 25.3 mph N/A   Overcast
5:53 PM 69.1 °F 55.9 °F 63% 29.82 in 10.0 mi West 11.5 mph - 0.00 in   Overcast
6:53 PM 66.9 °F 54.0 °F 63% 29.86 in 10.0 mi West 10.4 mph 19.6 mph N/A   Clear
7:53 PM 63.0 °F 54.0 °F 72% 29.89 in 10.0 mi West 8.1 mph - N/A   Clear
8:53 PM 59.0 °F 53.1 °F 81% 29.92 in 10.0 mi WSW 4.6 mph - N/A   Clear
9:53 PM 59.0 °F 53.1 °F 81% 29.93 in 10.0 mi West 4.6 mph - N/A   Partly Cloudy
10:53 PM 57.0 °F 53.1 °F 87% 29.93 in 10.0 mi West 5.8 mph - N/A   Clear
11:53 PM 57.0 °F 53.1 °F 87% 29.93 in 10.0 mi WSW 5.8 mph - N/A   Clear